[[{"header":{"parameterUnit":"m.s-1","parameterCategory":1,"la1":30.2991,"la2":30.254,"lo1":-89.0895,"lo2":-89.0444,"dy":0.0017,"dx":0.0017,"nx":28,"ny":28,"refTime":"2024-10-03T09:00:00:Z","depth":0,"parameterNumber":2,"parameterNumberName":"U-component_of_WINDS"},"data":[0,0,0,0,0,0,0,0,0,0,0,0,0,0,0,0,0,0,0,0,0,0,0,0,0,0,0,0,0,0,0,0,0,0,0,0,0,0,0,0,0,0,0,0,0,0,0,0,0,0,0,0,0,0,0,0,0,0,-3.8241,-3.8242,0,-3.8281,-3.8282,-3.8282,-3.8152,-3.8149,-3.8145,-3.8141,-3.8185,-3.819,-3.8195,0,0,0,0,0,0,0,0,0,0,0,0,0,-3.8056,-3.806,-3.8241,-3.8242,-3.8242,-3.8281,-3.8282,-3.8282,-3.8153,-3.8148,-3.8144,-3.8139,-3.8184,-3.819,-3.8195,0,0,0,0,0,0,0,0,0,0,0,0,0,-3.812,-3.8061,-3.8241,-3.8182,-3.8177,-3.8281,-3.8282,-3.8282,-3.8154,-3.8148,-3.8142,-3.8137,-3.8182,-3.8189,-3.8196,-3.836,0,0,-3.8219,-3.8222,0,0,0,0,0,0,0,0,-3.8117,-3.8127,-3.8191,-3.8187,-3.8181,-3.8206,-3.8232,-3.8308,-3.8156,-3.8163,-3.8141,-3.8134,-3.8197,-3.8203,-3.8223,-3.8362,-3.8363,-3.8219,-3.8224,-3.8227,-3.8229,0,0,0,0,0,0,0,-3.8112,-3.8125,-3.8257,-3.8192,-3.8186,-3.8155,-3.8158,-3.8246,-3.8213,-3.8162,-3.8153,-3.8159,-3.8194,-3.8217,-3.8224,-3.8364,-3.8219,-3.8225,-3.823,-3.8233,-3.8639,-3.8645,0,0,0,0,0,0,-3.8115,-3.8122,-3.8256,-3.8258,-3.8134,-3.8163,-3.8166,-3.8204,-3.8212,-3.8207,-3.8164,-3.8153,-3.8207,-3.8215,-3.8225,-3.8417,-3.8227,-3.8233,-3.8238,-3.8633,-3.864,-3.8647,0,0,0,0,0,0,-3.8112,-3.8128,-3.8254,-3.8188,-3.8201,-3.8172,-3.8216,-3.8208,-3.8231,-3.8213,-3.8207,-3.8194,-3.8203,-3.8214,-3.8327,-3.8417,-3.8237,-3.8243,-3.8625,-3.8635,-3.8644,-3.8804,0,0,0,0,0,0,-3.8107,-3.8128,-3.8189,-3.819,-3.8205,-3.8356,-3.8222,-3.8213,-3.8243,-3.8229,-3.8239,-3.8235,-3.8199,-3.8317,-3.8334,-3.8424,-3.8249,-3.8617,-3.8629,-3.8641,-3.879,-3.8818,-3.8841,0,0,0,0,0,-3.8101,-3.8233,-3.8193,-3.821,-3.8281,-3.8361,-3.837,-3.8325,-3.8251,-3.8313,-3.8301,-3.8235,-3.8404,-3.8329,-3.8348,-3.8441,-3.8611,-3.8626,-3.864,-3.8779,-3.8812,-3.8841,0,0,0,0,0,0,-3.8245,-3.8232,-3.8188,-3.8324,-3.8344,-3.8339,-3.8416,-3.8361,-3.8404,-3.8389,-3.8331,-3.8335,-3.8458,-3.846,-3.8378,-3.86,-3.8495,-3.8514,-3.8594,-3.8626,-3.8651,-3.8649,-3.8255,0,0,0,0,0,-3.8293,-3.8358,-3.8343,-3.8465,-3.8477,-3.8445,-3.8478,-3.8441,-3.8461,-3.8469,-3.8466,-3.8488,-3.8546,-3.8585,-3.8638,-3.8789,-3.879,-3.8862,-3.8888,-3.8909,-3.8927,-3.9008,-3.904,-3.8695,-3.8695,-3.8694,0,0,-3.8392,-3.8393,-3.8438,-3.8494,-3.8506,-3.8575,-3.8453,-3.8532,-3.8584,-3.8481,-3.8588,-3.8586,-3.8607,-3.874,-3.8798,-3.8746,-3.9022,-3.8927,-3.8944,-3.895,-3.9026,-3.9059,-3.9088,-3.8704,-3.8703,-3.8701,0,0,-3.8609,-3.8616,-3.8719,-3.8732,-3.8751,-3.8728,-3.8753,-3.8755,-3.875,-3.8855,-3.878,-3.8841,-3.8941,-3.896,-3.8983,-3.9206,-3.9147,-3.9224,-3.9358,-3.9438,-3.9465,-3.9489,-3.9571,-3.96,-3.9242,-3.9242,-3.9242,0,-3.8731,-3.8832,-3.8779,-3.8863,-3.889,-3.8799,-3.8903,-3.8919,-3.8955,-3.8976,-3.8916,-3.904,-3.9048,-3.9185,-3.9239,-3.926,-3.9288,-3.9224,-3.9465,-3.9489,-3.951,-3.9588,-3.9618,-3.9251,-3.925,-3.9249,-3.9248,0,-3.8982,-3.9053,-3.9134,-3.917,-3.9206,-3.93,-3.9261,-3.9304,-3.9264,-3.9248,-3.9357,-3.9362,-3.9415,-3.9444,-3.9405,-3.9575,-3.9542,-3.9475,-3.9369,-3.9554,-3.9625,-3.9654,-3.9265,-3.9262,-3.9259,-3.9256,0,0,-3.9294,-3.9297,-3.9328,-3.9343,-3.9356,-3.9411,-3.9501,-3.955,-3.959,-3.9616,-3.9692,-3.9778,-3.9716,-3.9742,-3.9704,-3.9774,-3.9953,-3.9698,-3.9697,-3.9747,-4.0142,-4.0195,-4.023,-3.9912,-3.9918,-3.9922,-4.0141,0,-3.9509,-3.9662,-3.9616,-3.9771,-3.9837,-3.975,-3.9828,-3.9846,-3.9833,-3.9888,-3.9873,-3.9937,-3.9848,-3.9863,-3.9928,-3.9917,-4.0032,-3.99,-3.9984,-3.9988,-3.9984,-4.0267,-4.0323,-4.053,-4.0169,-4.0173,-4.0177,0,-3.9781,-3.9818,-3.998,-3.9981,-4.0007,-4.0079,-4.0121,-4.0173,-4.0191,-4.0177,-4.0206,-4.0154,-4.0243,-4.0135,-4.0258,-4.017,-4.02,-4.02,-4.0207,-4.0215,-4.0096,-4.0286,-4.0594,-4.0627,-4.022,-4.0217,-4.0213,0,-3.9996,-4.0085,-4.0193,-4.0208,-4.0213,-4.0265,-4.027,-4.0282,-4.0315,-4.0351,-4.0372,-4.042,-4.0446,-4.0485,-4.0447,-4.0371,-4.0577,-4.0465,-4.057,-4.0571,-4.0619,-4.0617,-4.094,-4.0635,-4.0635,-4.0634,-4.0634,0,-4.0242,-4.0345,-4.0289,-4.0357,-4.0469,-4.0414,-4.0528,-4.0522,-4.0534,-4.0599,-4.0526,-4.0589,-4.0534,-4.0593,-4.0564,-4.0672,-4.0684,-4.0676,-4.0668,-4.0684,-4.0686,-4.0706,-4.0691,-4.0642,-4.0641,-4.0639,-4.0638,0,-4.0502,-4.0468,-4.0581,-4.0575,-4.0576,-4.066,-4.0656,-4.0718,-4.0699,-4.0782,-4.0799,-4.077,-4.0835,-4.08,-4.0868,-4.0848,-4.0988,-4.0959,-4.0983,-4.0976,-4.1083,-4.1075,-4.1432,-4.1477,-4.1142,-4.1145,-4.1148,0,-4.0663,-4.074,-4.0742,-4.078,-4.0789,-4.0851,-4.0884,-4.0833,-4.087,-4.0896,-4.0956,-4.1014,-4.1058,-4.1166,-4.1152,-4.1203,-4.1176,-4.1298,-4.1184,-4.1198,-4.1181,-4.1178,-4.1186,-4.1322,-4.1326,-4.1329,-4.1332,0,-4.0953,-4.0932,-4.0982,-4.1027,-4.1067,-4.11,-4.1127,-4.1162,-4.1112,-4.1158,-4.1222,-4.1257,-4.1325,-4.1384,-4.1428,-4.1434,-4.1377,-4.1368,-4.1395,-4.1414,-4.1425,-4.1423,-4.1048,-4.136,-4.1358,-4.1356,-4.1354,-4.1353,-4.117,-4.1234,-4.1246,-4.1304,-4.1318,-4.1344,-4.1403,-4.1391,-4.1443,-4.1494,-4.1461,-4.1538,-4.1553,-4.1606,-4.1619,-4.168,-4.1631,-4.167,-4.1681,-4.1692,-4.1707,-4.1413,-4.1687,-4.1686,-4.1686,-4.1685,-4.1684,0,-4.1458,-4.1461,-4.1514,-4.1553,-4.1599,-4.1538,-4.1564,-4.1607,-4.1675,-4.1694,-4.1739,-4.1814,-4.1871,-4.1861,-4.1913,-4.1963,-4.1938,-4.1979,-4.1976,-4.1979,-4.1747,-4.1719,-4.1998,-4.1998,-4.1998,-4.1998,-4.1998,-4.1998,-4.1613,-4.172,-4.1701,-4.1813,-4.1815,-4.1889,-4.191,-4.1934,-4.1949,-4.2036,-4.2082,-4.2074,-4.2082,-4.2134,-4.2184,-4.218,-4.2203,-4.2255,-4.2241,-4.2026,-4.1995,-4.1965,-4.1939,-4.226,-4.226,-4.2468,-4.247,-4.2471]},{"header":{"parameterUnit":"m.s-1","parameterCategory":1,"la1":30.2991,"la2":30.254,"lo1":-89.0895,"lo2":-89.0444,"dy":0.0017,"dx":0.0017,"nx":28,"ny":28,"refTime":"2024-10-03T09:00:00:Z","depth":0,"parameterNumber":3,"parameterNumberName":"V-component_of_WINDS"},"data":[0,0,0,0,0,0,0,0,0,0,0,0,0,0,0,0,0,0,0,0,0,0,0,0,0,0,0,0,0,0,0,0,0,0,0,0,0,0,0,0,0,0,0,0,0,0,0,0,0,0,0,0,0,0,0,0,0,0,-3.8094,-3.8094,0,-3.8104,-3.8104,-3.8104,-3.8061,-3.806,-3.8059,-3.8057,-3.8067,-3.8068,-3.807,0,0,0,0,0,0,0,0,0,0,0,0,0,-3.8037,-3.8038,-3.8094,-3.8094,-3.8095,-3.8104,-3.8104,-3.8104,-3.8061,-3.806,-3.8058,-3.8057,-3.8066,-3.8068,-3.807,0,0,0,0,0,0,0,0,0,0,0,0,0,-3.8056,-3.8039,-3.8094,-3.8074,-3.8073,-3.8104,-3.8104,-3.8104,-3.8062,-3.806,-3.8058,-3.8056,-3.8066,-3.8068,-3.807,-3.8121,0,0,-3.8076,-3.8077,0,0,0,0,0,0,0,0,-3.8055,-3.8058,-3.8077,-3.8076,-3.8074,-3.8079,-3.8087,-3.811,-3.8062,-3.8066,-3.8057,-3.8055,-3.8072,-3.8074,-3.808,-3.8121,-3.8122,-3.8077,-3.8078,-3.8079,-3.8079,0,0,0,0,0,0,0,-3.8053,-3.8057,-3.8098,-3.8077,-3.8075,-3.8064,-3.8065,-3.8091,-3.808,-3.8065,-3.8062,-3.8064,-3.8071,-3.8078,-3.808,-3.8122,-3.8077,-3.8078,-3.808,-3.8081,-3.8204,-3.8205,0,0,0,0,0,0,-3.8055,-3.8056,-3.8098,-3.8098,-3.8059,-3.8067,-3.8067,-3.808,-3.8079,-3.8077,-3.8066,-3.8062,-3.8075,-3.8077,-3.808,-3.8138,-3.8079,-3.8081,-3.8082,-3.8202,-3.8204,-3.8206,0,0,0,0,0,0,-3.8054,-3.8059,-3.8097,-3.8077,-3.8081,-3.807,-3.8084,-3.8081,-3.8087,-3.8079,-3.8077,-3.8075,-3.8074,-3.8077,-3.8111,-3.8138,-3.8082,-3.8084,-3.8199,-3.8202,-3.8205,-3.8255,0,0,0,0,0,0,-3.8052,-3.8059,-3.8079,-3.8077,-3.8082,-3.8129,-3.8085,-3.8082,-3.8091,-3.8087,-3.8087,-3.8086,-3.8073,-3.8108,-3.8113,-3.814,-3.8085,-3.8197,-3.8201,-3.8204,-3.8251,-3.826,-3.8267,0,0,0,0,0,-3.8051,-3.8093,-3.808,-3.8085,-3.8106,-3.813,-3.8133,-3.8117,-3.8094,-3.8113,-3.8107,-3.8086,-3.8134,-3.8111,-3.8117,-3.8145,-3.8195,-3.82,-3.8204,-3.8248,-3.8258,-3.8267,0,0,0,0,0,0,-3.8098,-3.8092,-3.8078,-3.8121,-3.8126,-3.8123,-3.8147,-3.8129,-3.8141,-3.8136,-3.8116,-3.8116,-3.8153,-3.8152,-3.8127,-3.8193,-3.816,-3.8166,-3.8192,-3.8202,-3.8209,-3.8208,-3.8087,0,0,0,0,0,-3.8113,-3.8133,-3.8128,-3.8166,-3.8169,-3.8158,-3.8168,-3.8155,-3.816,-3.8162,-3.8159,-3.8164,-3.818,-3.8191,-3.8206,-3.8251,-3.825,-3.8273,-3.8281,-3.8288,-3.8292,-3.8314,-3.8324,-3.8221,-3.8221,-3.8221,0,0,-3.8145,-3.8145,-3.8159,-3.8176,-3.8178,-3.8199,-3.816,-3.8184,-3.8198,-3.8165,-3.8196,-3.8194,-3.8199,-3.8238,-3.8255,-3.8239,-3.8321,-3.8293,-3.8299,-3.83,-3.832,-3.833,-3.8339,-3.8224,-3.8223,-3.8223,0,0,-3.8214,-3.8216,-3.8248,-3.8251,-3.8255,-3.8247,-3.8255,-3.8254,-3.8251,-3.8282,-3.8257,-3.8274,-3.8303,-3.8306,-3.8312,-3.8381,-3.836,-3.8386,-3.8427,-3.8448,-3.8457,-3.8464,-3.8486,-3.8495,-3.8391,-3.8391,-3.8391,0,-3.8253,-3.8283,-3.8266,-3.8291,-3.8298,-3.8269,-3.83,-3.8304,-3.8313,-3.8318,-3.83,-3.8334,-3.8335,-3.8374,-3.8391,-3.8397,-3.8404,-3.8385,-3.8457,-3.8464,-3.847,-3.8491,-3.85,-3.8394,-3.8394,-3.8394,-3.8393,0,-3.833,-3.8351,-3.8376,-3.8385,-3.8395,-3.8423,-3.841,-3.8422,-3.8409,-3.8402,-3.8433,-3.8433,-3.8447,-3.8455,-3.8443,-3.8492,-3.8481,-3.846,-3.8427,-3.8483,-3.8503,-3.8511,-3.8398,-3.8397,-3.8396,-3.8396,0,0,-3.8428,-3.8426,-3.8436,-3.8438,-3.8441,-3.8456,-3.8483,-3.8495,-3.8506,-3.8513,-3.8533,-3.8558,-3.8538,-3.8544,-3.8532,-3.8552,-3.8604,-3.8528,-3.8527,-3.854,-3.8656,-3.867,-3.868,-3.8591,-3.8592,-3.8593,-3.8655,0,-3.8494,-3.8538,-3.8523,-3.8568,-3.8586,-3.8558,-3.8581,-3.8584,-3.8579,-3.8593,-3.8587,-3.8604,-3.8578,-3.8581,-3.8599,-3.8593,-3.8626,-3.8589,-3.8608,-3.8609,-3.8606,-3.8691,-3.8706,-3.8764,-3.8663,-3.8664,-3.8665,0,-3.8576,-3.8585,-3.8632,-3.8629,-3.8636,-3.8657,-3.8666,-3.8681,-3.8684,-3.8679,-3.8685,-3.8668,-3.8693,-3.8661,-3.8693,-3.8668,-3.8676,-3.8674,-3.8676,-3.8675,-3.8639,-3.8691,-3.8782,-3.879,-3.8677,-3.8676,-3.8675,0,-3.864,-3.8665,-3.8695,-3.8699,-3.8697,-3.8712,-3.8712,-3.8713,-3.8721,-3.873,-3.8734,-3.8746,-3.8752,-3.8761,-3.8748,-3.8726,-3.8782,-3.8749,-3.8777,-3.8777,-3.8788,-3.8788,-3.8881,-3.8797,-3.8796,-3.8796,-3.8796,0,-3.8714,-3.8743,-3.8724,-3.8742,-3.8773,-3.8756,-3.8787,-3.8784,-3.8785,-3.8802,-3.878,-3.8796,-3.8777,-3.8792,-3.8782,-3.8809,-3.8813,-3.8808,-3.8805,-3.8809,-3.8809,-3.8812,-3.8807,-3.8798,-3.8798,-3.8798,-3.8797,0,-3.879,-3.8779,-3.881,-3.8805,-3.8805,-3.8828,-3.8824,-3.884,-3.8833,-3.8855,-3.8859,-3.8848,-3.8864,-3.8851,-3.8867,-3.886,-3.8896,-3.8888,-3.8894,-3.8891,-3.8919,-3.8916,-3.9016,-3.9027,-3.8938,-3.8939,-3.8939,0,-3.8837,-3.8858,-3.8856,-3.8865,-3.8866,-3.8883,-3.889,-3.8874,-3.8883,-3.8887,-3.8903,-3.8917,-3.8927,-3.8953,-3.8946,-3.8957,-3.8948,-3.8982,-3.895,-3.8953,-3.8946,-3.8944,-3.8945,-3.8988,-3.8989,-3.899,-3.8991,0,-3.892,-3.8913,-3.8925,-3.8935,-3.8945,-3.8953,-3.8958,-3.8967,-3.895,-3.8962,-3.8977,-3.8985,-3.9,-3.9013,-3.9022,-3.9022,-3.9003,-3.9002,-3.9008,-3.9012,-3.9014,-3.9011,-3.891,-3.8999,-3.8998,-3.8997,-3.8997,-3.8997,-3.8981,-3.8998,-3.8999,-3.9013,-3.9015,-3.9021,-3.9035,-3.903,-3.9042,-3.9053,-3.9043,-3.9061,-3.9062,-3.9073,-3.9074,-3.9088,-3.9074,-3.9084,-3.9086,-3.9088,-3.9091,-3.9014,-3.909,-3.909,-3.9089,-3.9089,-3.9089,0,-3.9062,-3.906,-3.9074,-3.9081,-3.9092,-3.9074,-3.9079,-3.9089,-3.9105,-3.9108,-3.9118,-3.9135,-3.9148,-3.9142,-3.9153,-3.9165,-3.9156,-3.9168,-3.9166,-3.9165,-3.9105,-3.9097,-3.9174,-3.9174,-3.9174,-3.9174,-3.9174,-3.9174,-3.9105,-3.9132,-3.9125,-3.9152,-3.9151,-3.9168,-3.9172,-3.9177,-3.9178,-3.9198,-3.9209,-3.9205,-3.9204,-3.9214,-3.9225,-3.9222,-3.9227,-3.9241,-3.9236,-3.9178,-3.917,-3.9162,-3.9154,-3.9243,-3.9243,-3.9295,-3.9295,-3.9296]}]]